Location: Asheville, NC
(35.6000°N, 82.5500°W)
Time: 03:23:31
(UTC-04:00)

RS-15 - Pass Details

Date: 11 March 2018
Orbit: 1890 x 2154 km, 64.8° (Epoch: 19 June)

Event Time Altitude Azimuth Distance (km) Brightness Sun altitude
Exits shadow 05:55:26 - 310° (NW) 5,489 10.0 -23.3°
Reaches altitude 10° 06:01:21 10° 333° (NNW) 4,585 9.8 -22.1°
Maximum altitude 06:06:36 13° 0° (N) 4,252 9.9 -21.1°
Drops below altitude 10° 06:11:46 10° 27° (NNE) 4,491 10.4 -20.0°
Sets 06:18:08 0° 53° (NE) 5,428 11.5 -18.8°
